Weather History for Lincolnton, NC

Change the Weather History Date:

Saturday, October 1, 2011

  Actual Average (KCLT) Record (KCLT)
Temperature  
Mean Temperature 50 °F 65 °F  
Max Temperature 60 °F 76 °F 92 °F (1954)
Min Temperature 41 °F 54 °F 39 °F (1899)
Degree Days  
Heating Degree Days 14 3  
Month to date heating degree days 3  
Since 1 July heating degree days 26  
Cooling Degree Days 0 3  
Month to date cooling degree days 3  
Year to date cooling degree days 1478  
Moisture  
Dew Point 36 °F    
Average Humidity 54    
Maximum Humidity 93    
Minimum Humidity 34    
Precipitation  
Precipitation 0.00 in 0.12 in 3.80 in (1929)
Month to date precipitation 0.12  
Year to date precipitation 31.96  
Snow  
Snow 0.00 in 0.00 in 0.00 in ()
Month to date snowfall 0.0  
Since 1 July snowfall 0.0  
Since 1 September snowfall 0.0  
Snow Depth -    
Sea Level Pressure  
Sea Level Pressure 29.91 in    
Wind  
Wind Speed 3 mph (NW)    
Max Wind Speed 14 mph    
Max Gust Speed 21 mph    
Visibility 10 miles    
Events      
T = Trace of Precipitation, MM = Missing Value Source: NWS Daily Summary

Daily Weather History Graph

Daily Weather History Graph

Search for Another Location

Airport:

Trip Planner

Search our weather history database for the weather conditions in past years. The results will help you decide how hot, cold, wet, or windy it might be!

Date:

Astronomy

Oct. 01, 2011 Rise Set
Actual Time 7:19 AM EDT 7:08 PM EDT
Civil Twilight 6:53 AM EDT 7:34 PM EDT
Nautical Twilight 6:24 AM EDT 8:03 PM EDT
Astronomical Twilight 5:54 AM EDT 8:33 PM EDT
Moon 12:11 PM EDT (10/1) 10:16 PM EDT (10/1)
Length of Visible Light 12h 40m
Length of Day
11h 49m
Waxing Crescent, 24% of the Moon is Illuminated
Oct 1
Waxing Crescent
Oct 3
First Quarter
Oct 11
Full
Oct 19
Last Quarter
Oct 26
New

Hourly Weather History & Observations

Time (EDT) Temp. Windchill Dew Point Humidity Pressure Visibility Wind Dir Wind Speed Gust Speed Precip Events Conditions
12:15 AM 55.4 °F - 44.6 °F 67% 29.85 in 10.0 mi Calm Calm - N/A   Mostly Cloudy
12:35 AM 55.4 °F - 44.6 °F 67% 29.86 in 10.0 mi Calm Calm - N/A   Overcast
12:55 AM 55.4 °F - 44.6 °F 67% 29.86 in 10.0 mi Calm Calm - N/A   Overcast
1:15 AM 55.4 °F - 44.6 °F 67% 29.86 in 10.0 mi Calm Calm - N/A   Overcast
1:35 AM 55.4 °F - 42.8 °F 63% 29.86 in 10.0 mi NNW 5.8 mph - N/A   Overcast
1:55 AM 55.4 °F - 41.0 °F 58% 29.87 in 10.0 mi NNW 4.6 mph - N/A   Scattered Clouds
2:15 AM 55.4 °F - 41.0 °F 58% 29.87 in 10.0 mi Calm Calm - N/A   Clear
2:35 AM 53.6 °F - 41.0 °F 62% 29.87 in 10.0 mi Calm Calm - N/A   Scattered Clouds
2:55 AM 51.8 °F - 41.0 °F 67% 29.87 in 10.0 mi Calm Calm - N/A   Mostly Cloudy
3:15 AM 53.6 °F - 41.0 °F 62% 29.86 in 10.0 mi NW 5.8 mph - N/A   Overcast
3:35 AM 53.6 °F - 39.2 °F 58% 29.88 in 10.0 mi WNW 3.5 mph - N/A   Mostly Cloudy
3:55 AM 51.8 °F - 39.2 °F 62% 29.87 in 10.0 mi Calm Calm - N/A   Scattered Clouds
4:15 AM 51.8 °F - 37.4 °F 58% 29.88 in 10.0 mi NW 3.5 mph - N/A   Clear
4:35 AM 51.8 °F - 37.4 °F 58% 29.88 in 10.0 mi Calm Calm - N/A   Clear
4:55 AM 50.0 °F - 37.4 °F 62% 29.88 in 10.0 mi Calm Calm - N/A   Clear
5:15 AM 50.0 °F - 37.4 °F 62% 29.88 in 10.0 mi Calm Calm - N/A   Clear
5:35 AM 48.2 °F - 37.4 °F 66% 29.88 in 10.0 mi Calm Calm - N/A   Clear
5:55 AM 46.4 °F 45.2 °F 37.4 °F 71% 29.89 in 10.0 mi West 3.5 mph - N/A   Clear
6:15 AM 46.4 °F - 37.4 °F 71% 29.89 in 10.0 mi Calm Calm - N/A   Clear
6:35 AM 44.6 °F - 39.2 °F 81% 29.89 in 10.0 mi Calm Calm - N/A   Clear
6:55 AM 44.6 °F - 37.4 °F 76% 29.89 in 10.0 mi Calm Calm - N/A   Clear
7:15 AM 42.8 °F - 39.2 °F 87% 29.89 in 10.0 mi Calm Calm - N/A   Clear
7:35 AM 41.0 °F - 39.2 °F 93% 29.89 in 10.0 mi Calm Calm - N/A   Clear
7:55 AM 42.8 °F - 41.0 °F 93% 29.90 in 10.0 mi Calm Calm - N/A   Clear
8:15 AM 44.6 °F - 41.0 °F 87% 29.90 in 10.0 mi Calm Calm - N/A   Clear
8:35 AM 50.0 °F - 37.4 °F 62% 29.90 in 10.0 mi Calm Calm - N/A   Clear
8:55 AM 51.8 °F - 37.4 °F 58% 29.90 in 10.0 mi Calm Calm - N/A   Clear
9:15 AM 53.6 °F - 37.4 °F 54% 29.90 in 10.0 mi WNW 6.9 mph - N/A   Clear
9:35 AM 53.6 °F - 35.6 °F 51% 29.91 in 10.0 mi North 4.6 mph - N/A   Clear
9:55 AM 55.4 °F - 35.6 °F 47% 29.92 in 10.0 mi WNW 4.6 mph - N/A   Clear
10:15 AM 55.4 °F - 33.8 °F 44% 29.92 in 10.0 mi WNW 6.9 mph - N/A   Clear
10:35 AM 57.2 °F - 32.0 °F 38% 29.93 in 10.0 mi NNW 6.9 mph 16.1 mph N/A   Scattered Clouds
10:55 AM 57.2 °F - 32.0 °F 38% 29.93 in 10.0 mi NW 9.2 mph - N/A   Scattered Clouds
11:15 AM 57.2 °F - 32.0 °F 38% 29.93 in 10.0 mi NW 9.2 mph - N/A   Scattered Clouds
11:35 AM 59.0 °F - 32.0 °F 36% 29.93 in 10.0 mi NW 6.9 mph 20.7 mph N/A   Scattered Clouds
11:55 AM 59.0 °F - 32.0 °F 36% 29.95 in 10.0 mi NNW 11.5 mph 17.3 mph N/A   Scattered Clouds
12:15 PM 59.0 °F - 32.0 °F 36% 29.95 in 10.0 mi WNW 10.4 mph 18.4 mph N/A   Mostly Cloudy
12:35 PM 55.4 °F - 33.8 °F 44% 29.95 in 10.0 mi NW 4.6 mph - N/A   Mostly Cloudy
12:55 PM 59.0 °F - 32.0 °F 36% 29.95 in 10.0 mi NW 9.2 mph 17.3 mph N/A   Scattered Clouds
1:15 PM 59.0 °F - 32.0 °F 36% 29.95 in 10.0 mi NW 5.8 mph 17.3 mph N/A   Scattered Clouds
1:35 PM 60.8 °F - 32.0 °F 34% 29.95 in 10.0 mi WNW 10.4 mph 18.4 mph N/A   Clear
1:55 PM 60.8 °F - 32.0 °F 34% 29.95 in 10.0 mi WNW 6.9 mph 18.4 mph N/A   Scattered Clouds
2:15 PM 59.0 °F - 32.0 °F 36% 29.94 in 10.0 mi WNW 8.1 mph - N/A   Scattered Clouds
2:35 PM 59.0 °F - 32.0 °F 36% 29.95 in 10.0 mi West 11.5 mph - N/A   Scattered Clouds
2:55 PM 60.8 °F - 32.0 °F 34% 29.95 in 10.0 mi WNW 9.2 mph 20.7 mph N/A   Scattered Clouds
3:15 PM 59.0 °F - 32.0 °F 36% 29.96 in 10.0 mi NNW 8.1 mph 18.4 mph N/A   Mostly Cloudy
3:35 PM 59.0 °F - 30.2 °F 34% 29.96 in 10.0 mi NNW 8.1 mph 16.1 mph N/A   Mostly Cloudy
3:55 PM 59.0 °F - 32.0 °F 36% 29.96 in 10.0 mi NNW 13.8 mph 20.7 mph N/A   Scattered Clouds
4:15 PM 59.0 °F - 32.0 °F 36% 29.97 in 10.0 mi NW 6.9 mph - N/A   Clear
4:35 PM 59.0 °F - 32.0 °F 36% 29.96 in 10.0 mi NW 8.1 mph - N/A   Clear
4:55 PM 59.0 °F - 32.0 °F 36% 29.97 in 10.0 mi WNW 11.5 mph 20.7 mph N/A   Clear
5:15 PM 59.0 °F - 32.0 °F 36% 29.97 in 10.0 mi WNW 8.1 mph - N/A   Scattered Clouds
5:35 PM 59.0 °F - 32.0 °F 36% 29.98 in 10.0 mi WNW 5.8 mph - N/A   Clear
5:55 PM 57.2 °F - 32.0 °F 38% 29.98 in 10.0 mi WNW 5.8 mph 17.3 mph N/A   Clear
6:15 PM 55.4 °F - 33.8 °F 44% 29.99 in 10.0 mi NW 8.1 mph - N/A   Clear
6:35 PM 53.6 °F - 33.8 °F 47% 29.99 in 10.0 mi WNW 6.9 mph - N/A   Clear
6:55 PM 53.6 °F - 35.6 °F 51% 29.99 in 10.0 mi NW 3.5 mph - N/A   Clear
7:15 PM 51.8 °F - 35.6 °F 54% 29.99 in 10.0 mi NW 5.8 mph - N/A   Clear
7:35 PM 51.8 °F - 35.6 °F 54% 29.99 in 10.0 mi NW 4.6 mph - N/A   Clear
7:55 PM 50.0 °F - 35.6 °F 58% 29.99 in 10.0 mi NW 5.8 mph - N/A   Clear
8:15 PM 50.0 °F - 35.6 °F 58% 30.00 in 10.0 mi WNW 4.6 mph - N/A   Clear
8:35 PM 50.0 °F - 35.6 °F 58% 30.01 in 10.0 mi West 4.6 mph - N/A   Clear
8:55 PM 46.4 °F 44.3 °F 37.4 °F 71% 30.01 in 10.0 mi WSW 4.6 mph - N/A   Clear
9:15 PM 46.4 °F - 37.4 °F 71% 30.02 in 10.0 mi Calm Calm - N/A   Clear
9:35 PM 44.6 °F - 37.4 °F 76% 30.02 in 10.0 mi Calm Calm - N/A   Clear
9:55 PM 46.4 °F 45.2 °F 37.4 °F 71% 30.02 in 10.0 mi West 3.5 mph - N/A   Clear
10:15 PM 42.8 °F 41.1 °F 37.4 °F 81% 30.02 in 10.0 mi WSW 3.5 mph - N/A   Clear
10:35 PM 44.6 °F 42.2 °F 37.4 °F 76% 30.02 in 10.0 mi West 4.6 mph - N/A   Clear
10:55 PM 44.6 °F 43.1 °F 37.4 °F 76% 30.02 in 10.0 mi SW 3.5 mph - N/A   Clear
11:15 PM 42.8 °F 38.6 °F 37.4 °F 81% 30.01 in 10.0 mi WSW 6.9 mph - N/A   Clear
11:35 PM 44.6 °F 41.4 °F 37.4 °F 76% 30.01 in 10.0 mi WSW 5.8 mph - N/A   Clear
11:55 PM 44.6 °F 41.4 °F 37.4 °F 76% 30.01 in 10.0 mi West 5.8 mph - N/A   Clear